Tracking 35331 objects as of 16-Sep-2026
HD Live streaming from Space Station
objects crossing your sky now

SL-6 R/B(2)


SL-6 R/B(2) is no longer on orbit


NORAD ID: 6341
Int'l Code: 1972-098D
Launch date: December 12, 1972
Source: Commonwealth of Independent States (former USSR) (CIS)
Launch site: PLESETSK MISSILE AND SPACE COMPLEX (PKMTR)
Decay date: 1974-10-07

Note: This is a ROCKET BODY
Your satellite tracking list
Your tracking list is empty




NASA's NSSDC Master Catalog

Two Line Element Set (TLE):
1 06341U 72098  D 74280.52233980 -.00351869 +00000-0 +00000-0 0  9996
2 06341 065.5079 046.8958 0346319 267.5901 088.5535 15.88418059015700
Source of the keplerian elements: AFSPC